Regional Weather Roundup
Issued by NWS Kansas City/Pleasant Hill, MO

Home | Current Version | Previous Version | Graphics & Text | Print | Product List | Glossary Off
Versions: 1 2 3 4 5 6 7 8 9 10 11 12 13 14 15 16 17 18 19 20 21 22 23 24 25 26 27 28 29 30 31 32 33 34 35 36 37 38 39 40 41 42 43 44 45 46 47 48 49 50

000
ASUS43 KEAX 301004
RWREAX

WEATHER ROUNDUP FOR EASTERN KANSAS AND NORTHWEST MISSOURI
NATIONAL WEATHER SERVICE KANSAS CITY/PLEASANT HILL MO
500 AM CDT SAT AUG 30 2014

KSZ040-057-103>105-MOZ028-029-037-043-301100-
...KANSAS CITY METROPOLITAN AREA...

CITY           SKY/WX    TMP DP  RH WIND       PRES   REMARKS
K.C. INTL      CLEAR     68  66  93 SW7       29.88S
K.C. DOWNTOWN  CLEAR     72  67  84 SW6       29.88R
LEES SUMMIT    CLEAR     70  66  87 SW9       29.90R
OLATHE - IXD   CLEAR     70  66  87 SW8       29.90S
OLATHE - OJC   CLEAR     69  66  90 SW5       29.90R
LAWRENCE       CLEAR     67  63  87 S3        29.89R

$$

MOZ001>008-011>017-020>025-030>033-038>040-044>046-053-054-301100-
...NORTHERN AND CENTRAL MISSOURI...

CITY           SKY/WX    TMP DP  RH WIND       PRES   REMARKS
ST. JOSEPH     PTCLDY    65  63  93 N3        29.88R
MOSBY          MOSUNNY   68  68 100 CALM      29.87S
WHITEMAN AFB   NOT AVBL
CLINTON        PTCLDY    73  70  88 S6        29.91S
SEDALIA        PTCLDY    74  67  78 SW12      29.91S
WARSAW         NOT AVBL
MARSHALL       CLOUDY    72  70  94 S5        29.90F
CHILLICOTHE      N/A     71  67  87 VRB3      29.88S
MOBERLY        PTCLDY    72  66  83 S7        29.89S
KIRKSVILLE     PTCLDY    68  66  93 SW6       29.87S

$$

MOZ041-047>049-056>058-063>065-088>090-097-301100-
...EASTERN AND SOUTHERN MISSOURI...

CITY           SKY/WX    TMP DP  RH WIND       PRES   REMARKS
ST. LOUIS INTL CLOUDY    77  67  71 SW8       29.93S
SPIRIT OF STL  MOCLDY    73  68  84 S5        29.91S
COLUMBIA       PTCLDY    70  68  93 S5        29.91F
JEFFERSON CITY MOCLDY    72  69  90 VRB6      29.91S
ROLLA          PTCLDY    68  66  93 S7        29.94S
OSAGE BEACH    MOCLDY    70  66  88 S5        29.94R
SPRINGFIELD    PTCLDY    71  67  87 S10       29.95S
BRANSON        MOCLDY    72  68  88 CALM      29.98S
NEVADA         PTCLDY    72  68  88 S6        29.93S
JOPLIN         PTCLDY    73  69  87 S9        29.94R
WEST PLAINS    MOCLDY    72  68  87 SW6       30.00R

$$

IAZ060-094-KSZ022-034>040-054-083-096-NEZ052-066-093-301100-
...KANSAS...SOUTHEAST NEBRASKA AND IOWA...

CITY           SKY/WX    TMP DP  RH WIND       PRES   REMARKS
TOPEKA         CLEAR     70  68  93 CALM      29.89R
MANHATTAN      CLEAR     64  62  93 CALM      29.92R
EMPORIA        CLEAR     67  65  93 SW6       29.91S
CHANUTE        CLEAR     72  69  90 S8        29.91S
WICHITA        CLEAR     67  65  93 CALM      29.92S
OMAHA          CLEAR     65  62  90 W3        29.88R
LINCOLN        PTCLDY    66  62  87 NW3       29.92R
FALLS CITY     CLEAR     66  65  96 W6        29.88R
LAMONI         CLEAR     65  64  97 SW3       29.86F
DES MOINES     PTCLDY    67  64  90 SW5       29.83R

$$



USA.gov is the U.S. government's official web portal to all federal, state and local government web resources and services.